Time,TemperatureF,DewpointF,PressureIn,WindDirection,WindDirectionDegrees,WindSpeedMPH,WindSpeedGustMPH,Humidity,HourlyPrecipIn,Conditions,Clouds,dailyrainin,SoftwareType,DateUTC
2013-04-04 00:02:00,39.0,28.0,30.06,WNW,287,3.0,15.0,64,0.00,,,0.00,,2013-04-04 05:02:00,
2013-04-04 00:13:00,39.0,28.0,30.06,WNW,287,3.0,15.0,64,0.00,,,0.00,,2013-04-04 05:13:00,
2013-04-04 00:23:00,38.0,28.0,30.06,WNW,298,3.0,9.0,66,0.00,,,0.00,,2013-04-04 05:23:00,
2013-04-04 00:32:00,37.0,27.0,30.07,West,265,3.0,11.0,66,0.00,,,0.00,,2013-04-04 05:32:00,
2013-04-04 00:42:00,37.0,27.0,30.07,West,265,3.0,11.0,66,0.00,,,0.00,,2013-04-04 05:42:00,
2013-04-04 00:52:00,37.0,27.0,30.06,West,277,2.0,9.0,66,0.00,,,0.00,,2013-04-04 05:52:00,
2013-04-04 01:02:00,37.0,27.0,30.07,NNE,14,2.0,9.0,66,0.00,,,0.00,,2013-04-04 06:02:00,
2013-04-04 01:12:00,37.0,27.0,30.07,NNE,14,2.0,9.0,66,0.00,,,0.00,,2013-04-04 06:12:00,
2013-04-04 01:22:00,36.0,25.0,30.07,NW,309,3.0,7.0,65,0.00,,,0.00,,2013-04-04 06:22:00,
2013-04-04 01:32:00,36.0,25.0,30.08,West,269,1.0,10.0,65,0.00,,,0.00,,2013-04-04 06:32:00,
2013-04-04 01:42:00,36.0,25.0,30.08,West,269,1.0,10.0,65,0.00,,,0.00,,2013-04-04 06:42:00,
2013-04-04 01:52:00,36.0,25.0,30.09,West,259,2.0,9.0,63,0.00,,,0.00,,2013-04-04 06:52:00,
2013-04-04 02:02:00,36.0,25.0,30.09,WNW,283,1.0,6.0,63,0.00,,,0.00,,2013-04-04 07:02:00,
2013-04-04 02:12:00,36.0,25.0,30.09,WNW,283,1.0,6.0,63,0.00,,,0.00,,2013-04-04 07:12:00,
2013-04-04 02:22:00,36.0,23.0,30.09,NNE,20,2.0,9.0,60,0.00,,,0.00,,2013-04-04 07:22:00,
2013-04-04 02:32:00,35.0,23.0,30.09,WNW,283,1.0,4.0,61,0.00,,,0.00,,2013-04-04 07:32:00,
2013-04-04 02:43:00,35.0,23.0,30.09,WNW,283,1.0,4.0,61,0.00,,,0.00,,2013-04-04 07:43:00,
2013-04-04 02:52:00,34.0,23.0,30.10,West,259,2.0,4.0,64,0.00,,,0.00,,2013-04-04 07:52:00,
2013-04-04 03:02:00,34.0,23.0,30.10,WNW,293,1.0,6.0,65,0.00,,,0.00,,2013-04-04 08:02:00,
2013-04-04 03:12:00,34.0,23.0,30.10,WNW,293,1.0,6.0,65,0.00,,,0.00,,2013-04-04 08:12:00,
2013-04-04 03:22:00,34.0,23.0,30.10,West,279,3.0,8.0,65,0.00,,,0.00,,2013-04-04 08:22:00,
2013-04-04 03:32:00,34.0,23.0,30.10,North,350,1.0,7.0,64,0.00,,,0.00,,2013-04-04 08:32:00,
2013-04-04 03:43:00,34.0,23.0,30.10,North,350,1.0,7.0,64,0.00,,,0.00,,2013-04-04 08:43:00,
2013-04-04 03:52:00,34.0,23.0,30.09,WSW,257,2.0,6.0,65,0.00,,,0.00,,2013-04-04 08:52:00,
2013-04-04 04:02:00,34.0,23.0,30.09,NNW,347,2.0,8.0,65,0.00,,,0.00,,2013-04-04 09:02:00,
2013-04-04 04:12:00,34.0,23.0,30.09,NNW,347,2.0,8.0,65,0.00,,,0.00,,2013-04-04 09:12:00,
2013-04-04 04:22:00,34.0,24.0,30.09,WSW,253,3.0,7.0,66,0.00,,,0.00,,2013-04-04 09:22:00,
2013-04-04 04:33:00,34.0,24.0,30.10,West,275,3.0,8.0,66,0.00,,,0.00,,2013-04-04 09:33:00,
2013-04-04 04:43:00,34.0,24.0,30.10,West,275,3.0,8.0,66,0.00,,,0.00,,2013-04-04 09:43:00,
2013-04-04 04:53:00,34.0,24.0,30.10,WNW,296,3.0,8.0,67,0.00,,,0.00,,2013-04-04 09:53:00,
2013-04-04 05:04:00,34.0,24.0,30.11,NNW,340,5.0,11.0,67,0.00,,,0.00,,2013-04-04 10:04:00,
2013-04-04 05:12:00,34.0,24.0,30.11,NNW,340,5.0,11.0,67,0.00,,,0.00,,2013-04-04 10:12:00,
2013-04-04 05:23:00,34.0,24.0,30.11,SW,222,3.0,10.0,67,0.00,,,0.00,,2013-04-04 10:23:00,
2013-04-04 05:33:00,33.0,23.0,30.11,SW,234,3.0,9.0,67,0.00,,,0.00,,2013-04-04 10:33:00,
2013-04-04 05:42:00,33.0,23.0,30.11,SW,234,3.0,9.0,67,0.00,,,0.00,,2013-04-04 10:42:00,
2013-04-04 05:53:00,33.0,23.0,30.12,NW,315,4.0,13.0,66,0.00,,,0.00,,2013-04-04 10:53:00,
2013-04-04 06:02:00,33.0,23.0,30.12,WSW,248,2.0,9.0,66,0.00,,,0.00,,2013-04-04 11:02:00,
2013-04-04 06:12:00,33.0,23.0,30.12,WSW,248,2.0,9.0,66,0.00,,,0.00,,2013-04-04 11:12:00,
2013-04-04 06:22:00,32.0,22.0,30.12,NW,326,4.0,10.0,66,0.00,,,0.00,,2013-04-04 11:22:00,
2013-04-04 06:33:00,32.0,22.0,30.12,West,281,2.0,8.0,66,0.00,,,0.00,,2013-04-04 11:33:00,
2013-04-04 06:42:00,32.0,22.0,30.12,West,281,2.0,8.0,66,0.00,,,0.00,,2013-04-04 11:42:00,
2013-04-04 06:53:00,32.0,22.0,30.13,NNW,338,4.0,15.0,66,0.00,,,0.00,,2013-04-04 11:53:00,
2013-04-04 07:02:00,32.0,22.0,30.14,West,277,3.0,10.0,66,0.00,,,0.00,,2013-04-04 12:02:00,
2013-04-04 07:12:00,32.0,22.0,30.14,West,277,3.0,10.0,66,0.00,,,0.00,,2013-04-04 12:12:00,
2013-04-04 07:22:00,32.0,22.0,30.14,NW,313,2.0,13.0,66,0.00,,,0.00,,2013-04-04 12:22:00,
2013-04-04 07:32:00,31.0,21.0,30.14,NW,319,3.0,10.0,67,0.00,,,0.00,,2013-04-04 12:32:00,
2013-04-04 07:43:00,31.0,21.0,30.14,NW,319,3.0,10.0,67,0.00,,,0.00,,2013-04-04 12:43:00,
2013-04-04 07:52:00,31.0,21.0,30.15,NW,312,4.0,11.0,67,0.00,,,0.00,,2013-04-04 12:52:00,
2013-04-04 08:02:00,31.0,21.0,30.16,WNW,287,5.0,12.0,66,0.00,,,0.00,,2013-04-04 13:02:00,
2013-04-04 08:12:00,31.0,21.0,30.16,WNW,287,5.0,12.0,66,0.00,,,0.00,,2013-04-04 13:12:00,
2013-04-04 08:22:00,32.0,22.0,30.16,WSW,255,4.0,14.0,66,0.00,,,0.00,,2013-04-04 13:22:00,
2013-04-04 08:32:00,32.0,22.0,30.17,NNW,340,5.0,14.0,66,0.00,,,0.00,,2013-04-04 13:32:00,
2013-04-04 08:42:00,32.0,22.0,30.17,NNW,340,5.0,14.0,66,0.00,,,0.00,,2013-04-04 13:42:00,
2013-04-04 08:52:00,32.0,22.0,30.18,WSW,247,4.0,13.0,65,0.00,,,0.00,,2013-04-04 13:52:00,
2013-04-04 09:03:00,32.0,22.0,30.18,WNW,284,5.0,17.0,65,0.00,,,0.00,,2013-04-04 14:03:00,
2013-04-04 09:13:00,32.0,22.0,30.18,WNW,284,5.0,17.0,65,0.00,,,0.00,,2013-04-04 14:13:00,
2013-04-04 09:22:00,32.0,21.0,30.18,ENE,59,4.0,15.0,64,0.00,,,0.00,,2013-04-04 14:22:00,
2013-04-04 09:32:00,32.0,21.0,30.19,NW,311,8.0,15.0,63,0.00,,,0.00,,2013-04-04 14:32:00,
2013-04-04 09:42:00,32.0,21.0,30.19,NW,311,8.0,15.0,63,0.00,,,0.00,,2013-04-04 14:42:00,
2013-04-04 09:52:00,32.0,20.0,30.19,NNW,338,6.0,13.0,62,0.00,,,0.00,,2013-04-04 14:52:00,
2013-04-04 10:02:00,32.0,21.0,30.20,WNW,298,4.0,16.0,63,0.00,,,0.00,,2013-04-04 15:02:00,
2013-04-04 10:12:00,32.0,21.0,30.20,WNW,298,4.0,16.0,63,0.00,,,0.00,,2013-04-04 15:12:00,
2013-04-04 10:23:00,33.0,21.0,30.20,NNW,340,8.0,17.0,61,0.00,,,0.00,,2013-04-04 15:23:00,
2013-04-04 10:33:00,33.0,21.0,30.21,North,360,5.0,17.0,60,0.00,,,0.00,,2013-04-04 15:33:00,
2013-04-04 10:43:00,33.0,21.0,30.21,North,360,5.0,17.0,60,0.00,,,0.00,,2013-04-04 15:43:00,
2013-04-04 10:53:00,33.0,20.0,30.21,NNW,333,8.0,16.0,59,0.00,,,0.00,,2013-04-04 15:53:00,
2013-04-04 11:03:00,33.0,21.0,30.21,NW,306,4.0,14.0,60,0.00,,,0.00,,2013-04-04 16:03:00,
2013-04-04 11:12:00,33.0,21.0,30.21,NW,306,4.0,14.0,60,0.00,,,0.00,,2013-04-04 16:12:00,
2013-04-04 11:24:00,33.0,20.0,30.22,North,355,5.0,14.0,58,0.00,,,0.00,,2013-04-04 16:24:00,
2013-04-04 11:32:00,33.0,20.0,30.22,NW,317,4.0,13.0,58,0.00,,,0.00,,2013-04-04 16:32:00,
2013-04-04 11:42:00,33.0,20.0,30.22,NW,317,4.0,13.0,58,0.00,,,0.00,,2013-04-04 16:42:00,
2013-04-04 11:53:00,33.0,19.0,30.22,WNW,290,5.0,13.0,57,0.00,,,0.00,,2013-04-04 16:53:00,
2013-04-04 12:03:00,34.0,21.0,30.23,NW,313,3.0,14.0,59,0.00,,,0.00,,2013-04-04 17:03:00,
2013-04-04 12:13:00,34.0,21.0,30.23,NW,313,3.0,14.0,59,0.00,,,0.00,,2013-04-04 17:13:00,
2013-04-04 12:22:00,35.0,21.0,30.24,WNW,282,5.0,13.0,57,0.00,,,0.00,,2013-04-04 17:22:00,
2013-04-04 12:33:00,35.0,21.0,30.24,NW,321,3.0,11.0,57,0.00,,,0.00,,2013-04-04 17:33:00,
2013-04-04 12:42:00,35.0,21.0,30.24,NW,321,3.0,11.0,57,0.00,,,0.00,,2013-04-04 17:42:00,
2013-04-04 12:52:00,35.0,21.0,30.24,North,5,3.0,9.0,56,0.00,,,0.00,,2013-04-04 17:52:00,
2013-04-04 13:02:00,35.0,20.0,30.24,North,355,5.0,13.0,54,0.00,,,0.00,,2013-04-04 18:02:00,
2013-04-04 13:12:00,35.0,20.0,30.24,North,355,5.0,13.0,54,0.00,,,0.00,,2013-04-04 18:12:00,
2013-04-04 13:22:00,35.0,20.0,30.24,NNW,329,5.0,12.0,53,0.00,,,0.00,,2013-04-04 18:22:00,
2013-04-04 13:32:00,35.0,19.0,30.24,West,272,5.0,9.0,52,0.00,,,0.00,,2013-04-04 18:32:00,
2013-04-04 13:43:00,35.0,19.0,30.24,West,272,5.0,9.0,52,0.00,,,0.00,,2013-04-04 18:43:00,
2013-04-04 13:52:00,36.0,20.0,30.24,NNE,23,4.0,11.0,52,0.00,,,0.00,,2013-04-04 18:52:00,
2013-04-04 14:02:00,35.0,17.0,30.24,NNW,345,5.0,11.0,48,0.00,,,0.00,,2013-04-04 19:02:00,
2013-04-04 14:12:00,35.0,17.0,30.24,NNW,345,5.0,11.0,48,0.00,,,0.00,,2013-04-04 19:12:00,
2013-04-04 14:22:00,35.0,19.0,30.24,NE,36,3.0,12.0,52,0.00,,,0.00,,2013-04-04 19:22:00,
2013-04-04 14:32:00,35.0,18.0,30.24,NNW,341,2.0,12.0,50,0.00,,,0.00,,2013-04-04 19:32:00,
2013-04-04 14:42:00,35.0,18.0,30.24,NNW,341,2.0,12.0,50,0.00,,,0.00,,2013-04-04 19:42:00,
2013-04-04 14:52:00,35.0,20.0,30.25,North,350,5.0,12.0,53,0.00,,,0.00,,2013-04-04 19:52:00,
2013-04-04 15:03:00,34.0,19.0,30.24,North,350,5.0,12.0,53,0.00,,,0.00,,2013-04-04 20:03:00,
2013-04-04 15:12:00,34.0,19.0,30.24,North,350,5.0,12.0,53,0.00,,,0.00,,2013-04-04 20:12:00,
2013-04-04 15:22:00,34.0,19.0,30.24,North,350,5.0,12.0,53,0.00,,,0.00,,2013-04-04 20:22:00,
2013-04-04 15:32:00,35.0,19.0,30.24,NE,54,4.0,11.0,52,0.00,,,0.00,,2013-04-04 20:32:00,
2013-04-04 15:42:00,35.0,19.0,30.24,NE,54,4.0,11.0,52,0.00,,,0.00,,2013-04-04 20:42:00,
2013-04-04 15:53:00,34.0,19.0,30.24,NNE,24,2.0,10.0,53,0.00,,,0.00,,2013-04-04 20:53:00,
2013-04-04 16:02:00,34.0,20.0,30.24,NE,34,5.0,10.0,56,0.00,,,0.00,,2013-04-04 21:02:00,
2013-04-04 16:12:00,34.0,20.0,30.24,NE,34,5.0,10.0,56,0.00,,,0.00,,2013-04-04 21:12:00,
2013-04-04 16:22:00,34.0,20.0,30.24,North,355,5.0,9.0,56,0.00,,,0.00,,2013-04-04 21:22:00,
2013-04-04 16:32:00,35.0,19.0,30.24,NNW,343,6.0,14.0,52,0.00,,,0.00,,2013-04-04 21:32:00,
2013-04-04 16:43:00,35.0,19.0,30.24,NNW,343,6.0,14.0,52,0.00,,,0.00,,2013-04-04 21:43:00,
2013-04-04 16:52:00,34.0,18.0,30.24,NNW,328,5.0,12.0,52,0.00,,,0.00,,2013-04-04 21:52:00,
2013-04-04 17:03:00,34.0,19.0,30.24,NNW,340,3.0,11.0,54,0.00,,,0.00,,2013-04-04 22:03:00,
2013-04-04 17:12:00,34.0,19.0,30.24,NNW,340,3.0,11.0,54,0.00,,,0.00,,2013-04-04 22:12:00,
2013-04-04 17:23:00,34.0,19.0,30.24,NE,49,3.0,12.0,54,0.00,,,0.00,,2013-04-04 22:23:00,
2013-04-04 17:33:00,33.0,19.0,30.25,NNW,338,3.0,12.0,55,0.00,,,0.00,,2013-04-04 22:33:00,
2013-04-04 17:42:00,33.0,19.0,30.25,NNW,338,3.0,12.0,55,0.00,,,0.00,,2013-04-04 22:42:00,
2013-04-04 17:53:00,33.0,19.0,30.25,WNW,295,2.0,11.0,55,0.00,,,0.00,,2013-04-04 22:53:00,
2013-04-04 18:03:00,34.0,17.0,30.25,North,5,5.0,12.0,50,0.00,,,0.00,,2013-04-04 23:03:00,
2013-04-04 18:12:00,34.0,17.0,30.25,North,5,5.0,12.0,50,0.00,,,0.00,,2013-04-04 23:12:00,
2013-04-04 18:22:00,34.0,18.0,30.25,West,279,5.0,13.0,52,0.00,,,0.00,,2013-04-04 23:22:00,
2013-04-04 18:32:00,33.0,19.0,30.25,North,5,2.0,12.0,55,0.00,,,0.00,,2013-04-04 23:32:00,
2013-04-04 18:42:00,33.0,19.0,30.25,North,5,2.0,12.0,55,0.00,,,0.00,,2013-04-04 23:42:00,
2013-04-04 18:52:00,32.0,18.0,30.25,West,265,6.0,15.0,55,0.00,,,0.00,,2013-04-04 23:52:00,
2013-04-04 19:02:00,32.0,18.0,30.25,West,277,6.0,11.0,56,0.00,,,0.00,,2013-04-05 00:02:00,
2013-04-04 19:12:00,32.0,18.0,30.25,West,277,6.0,11.0,56,0.00,,,0.00,,2013-04-05 00:12:00,
2013-04-04 19:22:00,32.0,19.0,30.25,NW,313,4.0,11.0,57,0.00,,,0.00,,2013-04-05 00:22:00,
2013-04-04 19:32:00,32.0,19.0,30.25,North,9,3.0,12.0,57,0.00,,,0.00,,2013-04-05 00:32:00,
2013-04-04 19:42:00,32.0,19.0,30.25,North,9,3.0,12.0,57,0.00,,,0.00,,2013-04-05 00:42:00,
2013-04-04 19:52:00,31.0,18.0,30.25,NW,315,0.0,8.0,58,0.00,,,0.00,,2013-04-05 00:52:00,
2013-04-04 20:02:00,30.0,15.0,30.25,WNW,284,4.0,12.0,54,0.00,,,0.00,,2013-04-05 01:02:00,
2013-04-04 20:12:00,30.0,15.0,30.25,WNW,284,4.0,12.0,54,0.00,,,0.00,,2013-04-05 01:12:00,
2013-04-04 20:22:00,29.0,16.0,30.25,NW,304,2.0,9.0,57,0.00,,,0.00,,2013-04-05 01:22:00,
2013-04-04 20:32:00,29.0,16.0,30.26,WSW,239,3.0,6.0,59,0.00,,,0.00,,2013-04-05 01:32:00,
2013-04-04 20:42:00,29.0,16.0,30.26,WSW,239,3.0,6.0,59,0.00,,,0.00,,2013-04-05 01:42:00,
2013-04-04 20:52:00,28.0,16.0,30.26,NW,304,3.0,9.0,61,0.00,,,0.00,,2013-04-05 01:52:00,
2013-04-04 21:03:00,28.0,17.0,30.26,NW,322,3.0,8.0,62,0.00,,,0.00,,2013-04-05 02:03:00,
2013-04-04 21:12:00,28.0,17.0,30.26,NW,322,3.0,8.0,62,0.00,,,0.00,,2013-04-05 02:12:00,
2013-04-04 21:22:00,28.0,17.0,30.26,NW,321,2.0,6.0,64,0.00,,,0.00,,2013-04-05 02:22:00,
2013-04-04 21:32:00,27.0,17.0,30.27,NW,315,0.0,7.0,65,0.00,,,0.00,,2013-04-05 02:32:00,
2013-04-04 21:42:00,27.0,17.0,30.27,NW,315,0.0,7.0,65,0.00,,,0.00,,2013-04-05 02:42:00,
2013-04-04 21:52:00,27.0,17.0,30.27,NW,306,2.0,5.0,66,0.00,,,0.00,,2013-04-05 02:52:00,
2013-04-04 22:02:00,27.0,18.0,30.28,NNW,336,2.0,5.0,67,0.00,,,0.00,,2013-04-05 03:02:00,
2013-04-04 22:12:00,27.0,18.0,30.28,NNW,336,2.0,5.0,67,0.00,,,0.00,,2013-04-05 03:12:00,
2013-04-04 22:22:00,27.0,18.0,30.28,NW,308,2.0,7.0,68,0.00,,,0.00,,2013-04-05 03:22:00,
2013-04-04 22:32:00,26.0,17.0,30.29,WNW,291,0.0,4.0,68,0.00,,,0.00,,2013-04-05 03:32:00,
2013-04-04 22:43:00,26.0,17.0,30.29,WNW,291,0.0,4.0,68,0.00,,,0.00,,2013-04-05 03:43:00,
2013-04-04 22:53:00,26.0,17.0,30.29,NW,305,2.0,6.0,68,0.00,,,0.00,,2013-04-05 03:53:00,
2013-04-04 23:02:00,26.0,17.0,30.28,NW,315,1.0,6.0,69,0.00,,,0.00,,2013-04-05 04:02:00,
2013-04-04 23:12:00,26.0,17.0,30.28,NW,315,1.0,6.0,69,0.00,,,0.00,,2013-04-05 04:12:00,
2013-04-04 23:22:00,26.0,17.0,30.29,North,5,3.0,6.0,69,0.00,,,0.00,,2013-04-05 04:22:00,
2013-04-04 23:32:00,25.0,17.0,30.29,NW,307,1.0,4.0,70,0.00,,,0.00,,2013-04-05 04:32:00,
2013-04-04 23:42:00,25.0,17.0,30.29,NW,307,1.0,4.0,70,0.00,,,0.00,,2013-04-05 04:42:00,
2013-04-04 23:52:00,25.0,17.0,30.29,North,5,2.0,5.0,70,0.00,,,0.00,,2013-04-05 04:52:00,